This is the latest recevied weather packets stored in our database for station/object S56VIL-11. If no packets are shown the sender has not sent any weather packets the latest 10 day(s).
| Time | Temp. | Humidity | Pressure | Rain* | Wind** | Luminosity | Snow |
|---|---|---|---|---|---|---|---|
| 1788539140 | 25° C | 56% | 1032.2 hPa | - | - | - | - |
| 1788538240 | 26.11° C | 55% | 1032.3 hPa | - | - | - | - |
| 1788537340 | 25.56° C | 55% | 1032.2 hPa | - | - | - | - |
| 1788536440 | 26.11° C | 55% | 1032.5 hPa | - | - | - | - |
| 1788535540 | 26.11° C | 55% | 1032.5 hPa | - | - | - | - |
| 1788534640 | 26.11° C | 54% | 1032.6 hPa | - | - | - | - |
| 1788532840 | 26.67° C | 55% | 1032.9 hPa | - | - | - | - |
| 1788531940 | 28.89° C | 54% | 1032.9 hPa | - | - | - | - |
| 1788531040 | 31.11° C | 53% | 1033.3 hPa | - | - | - | - |
| 1788530140 | 28.89° C | 54% | 1033.3 hPa | - | - | - | - |
| 1788529240 | 26.67° C | 55% | 1033.2 hPa | - | - | - | - |
| 1788528340 | 28.33° C | 53% | 1033.4 hPa | - | - | - | - |
| 1788527440 | 26.11° C | 55% | 1033.3 hPa | - | - | - | - |
| 1788526540 | 26.67° C | 54% | 1033.5 hPa | - | - | - | - |
| 1788525640 | 26.67° C | 55% | 1033.7 hPa | - | - | - | - |
| 1788524740 | 26.67° C | 55% | 1033.8 hPa | - | - | - | - |
| 1788523840 | 26.67° C | 55% | 1033.9 hPa | - | - | - | - |
| 1788522940 | 26.67° C | 54% | 1034 hPa | - | - | - | - |
| 1788522039 | 26.67° C | 55% | 1034.1 hPa | - | - | - | - |
| 1788521139 | 25.56° C | 57% | 1034.3 hPa | - | - | - | - |
| 1788520239 | 26.11° C | 56% | 1034.3 hPa | - | - | - | - |
| 1788519339 | 26.67° C | 57% | 1034.2 hPa | - | - | - | - |
| 1788518439 | 29.44° C | 56% | 1034.2 hPa | - | - | - | - |
| 1788517539 | 32.22° C | 55% | 1034.1 hPa | - | - | - | - |
| 1788516639 | 32.78° C | 54% | 1034.3 hPa | - | - | - | - |
* Rain since midnight (hover to see other rain measurements)
** Current wind speed in m/s (hover to see current wind gust speed)